Time,TemperatureF,DewpointF,PressureIn,WindDirection,WindDirectionDegrees,WindSpeedMPH,WindSpeedGustMPH,Humidity,HourlyPrecipIn,Conditions,Clouds,dailyrainin,SoftwareType,DateUTC
2013-01-11 08:02:00,42.5,33.8,30.26,West,269,0.0,0.0,71,0.00,,,0.00,Wunderground v.1.15,2013-01-11 16:02:00,
2013-01-11 08:12:00,42.9,34.5,30.25,WNW,293,0.0,0.0,72,0.00,,,0.00,Wunderground v.1.15,2013-01-11 16:12:00,
2013-01-11 08:22:00,43.6,33.7,30.26,WNW,287,1.0,1.0,68,0.00,,,0.00,Wunderground v.1.15,2013-01-11 16:22:00,
2013-01-11 08:32:00,44.1,33.5,30.26,WNW,295,1.0,1.0,66,0.00,,,0.00,Wunderground v.1.15,2013-01-11 16:32:00,
2013-01-11 08:42:00,44.5,34.2,30.26,WSW,237,1.0,1.0,67,0.00,,,0.00,Wunderground v.1.15,2013-01-11 16:42:00,
2013-01-11 08:52:00,44.7,34.0,30.26,NW,311,1.0,3.0,66,0.00,,,0.00,Wunderground v.1.15,2013-01-11 16:52:00,
2013-01-11 09:02:00,44.6,33.9,30.26,NW,310,1.0,1.0,66,0.00,,,0.00,Wunderground v.1.15,2013-01-11 17:02:00,
2013-01-11 09:12:00,44.7,34.0,30.26,NW,306,1.0,1.0,66,0.00,,,0.00,Wunderground v.1.15,2013-01-11 17:12:00,
2013-01-11 09:22:00,45.1,33.6,30.26,West,259,1.0,1.0,64,0.00,,,0.00,Wunderground v.1.15,2013-01-11 17:22:00,
2013-01-11 12:32:00,53.0,36.8,30.18,WNW,289,2.0,2.0,54,0.00,,,0.00,Wunderground v.1.15,2013-01-11 20:32:00,
2013-01-11 12:42:00,53.6,37.3,30.18,WNW,300,2.0,5.0,54,0.00,,,0.00,Wunderground v.1.15,2013-01-11 20:42:00,
2013-01-11 12:52:00,54.2,38.4,30.17,West,269,2.0,2.0,55,0.00,,,0.00,Wunderground v.1.15,2013-01-11 20:52:00,
2013-01-11 13:02:00,54.4,38.6,30.17,SSW,197,1.0,1.0,55,0.00,,,0.00,Wunderground v.1.15,2013-01-11 21:02:00,
2013-01-11 13:12:00,54.5,38.7,30.17,WNW,300,2.0,2.0,55,0.00,,,0.00,Wunderground v.1.15,2013-01-11 21:12:00,
2013-01-11 13:22:00,54.2,38.4,30.17,NNW,327,1.0,1.0,55,0.00,,,0.00,Wunderground v.1.15,2013-01-11 21:22:00,
2013-01-11 13:32:00,54.8,39.8,30.17,West,280,2.0,3.0,57,0.00,,,0.00,Wunderground v.1.15,2013-01-11 21:32:00,
2013-01-11 13:42:00,55.2,39.3,30.17,WSW,237,2.0,2.0,55,0.00,,,0.00,Wunderground v.1.15,2013-01-11 21:42:00,
2013-01-11 13:52:00,55.0,39.6,30.16,WNW,289,2.0,4.0,56,0.00,,,0.00,Wunderground v.1.15,2013-01-11 21:52:00,
2013-01-11 14:02:00,55.2,39.8,30.16,NE,50,1.0,1.0,56,0.00,,,0.00,Wunderground v.1.15,2013-01-11 22:02:00,
2013-01-11 14:12:00,54.8,39.8,30.16,West,271,3.0,3.0,57,0.00,,,0.00,Wunderground v.1.15,2013-01-11 22:12:00,
2013-01-11 14:22:00,54.4,39.5,30.16,NW,317,3.0,3.0,57,0.00,,,0.00,Wunderground v.1.15,2013-01-11 22:22:00,
2013-01-11 14:32:00,54.1,39.6,30.15,WNW,299,3.0,4.0,58,0.00,,,0.00,Wunderground v.1.15,2013-01-11 22:32:00,
2013-01-11 17:22:00,47.3,40.5,30.14,WSW,252,1.0,8.0,77,0.00,,,0.00,Wunderground v.1.15,2013-01-12 01:22:00,
2013-01-11 17:32:00,46.9,40.4,30.14,WSW,239,1.0,1.0,78,0.00,,,0.00,Wunderground v.1.15,2013-01-12 01:32:00,
2013-01-11 17:42:00,46.6,40.4,30.14,WSW,244,1.0,5.0,79,0.00,,,0.00,Wunderground v.1.15,2013-01-12 01:42:00,
2013-01-11 17:52:00,46.5,40.3,30.14,NE,43,2.0,2.0,79,0.00,,,0.00,Wunderground v.1.15,2013-01-12 01:52:00,
2013-01-11 18:02:00,46.3,40.5,30.14,NNE,27,1.0,1.0,80,0.00,,,0.00,Wunderground v.1.15,2013-01-12 02:02:00,
2013-01-11 18:12:00,46.2,40.4,30.14,WNW,299,2.0,3.0,80,0.00,,,0.00,Wunderground v.1.15,2013-01-12 02:12:00,
2013-01-11 18:22:00,46.0,40.5,30.15,WNW,283,1.0,2.0,81,0.00,,,0.00,Wunderground v.1.15,2013-01-12 02:22:00,
2013-01-11 18:42:00,45.8,40.3,30.14,West,275,1.0,9.0,81,0.00,,,0.00,Wunderground v.1.15,2013-01-12 02:42:00,
2013-01-11 18:52:00,45.8,40.6,30.15,WSW,243,1.0,1.0,82,0.00,,,0.00,Wunderground v.1.15,2013-01-12 02:52:00,
2013-01-11 19:02:00,45.6,40.4,30.14,WNW,283,1.0,2.0,82,0.00,,,0.00,Wunderground v.1.15,2013-01-12 03:02:00,
2013-01-11 19:12:00,45.5,40.3,30.14,WNW,295,1.0,1.0,82,0.00,,,0.00,Wunderground v.1.15,2013-01-12 03:12:00,
2013-01-11 19:22:00,45.4,40.2,30.14,SW,219,1.0,1.0,82,0.00,,,0.00,Wunderground v.1.15,2013-01-12 03:22:00,
2013-01-11 19:32:00,45.3,40.4,30.14,NW,308,1.0,1.0,83,0.00,,,0.00,Wunderground v.1.15,2013-01-12 03:32:00,
2013-01-11 19:42:00,45.1,40.2,30.14,North,4,1.0,1.0,83,0.00,,,0.00,Wunderground v.1.15,2013-01-12 03:42:00,
2013-01-11 19:52:00,44.9,39.7,30.14,West,267,0.0,0.0,82,0.00,,,0.00,Wunderground v.1.15,2013-01-12 03:52:00,
2013-01-11 20:02:00,44.7,39.9,30.15,West,276,0.0,0.0,83,0.00,,,0.00,Wunderground v.1.15,2013-01-12 04:02:00,
2013-01-11 20:12:00,44.5,39.7,30.15,WNW,285,0.0,0.0,83,0.00,,,0.00,Wunderground v.1.15,2013-01-12 04:12:00,
2013-01-11 20:22:00,44.3,39.5,30.16,West,261,0.0,0.0,83,0.00,,,0.00,Wunderground v.1.15,2013-01-12 04:22:00,
2013-01-11 20:32:00,43.9,39.1,30.16,West,261,0.0,0.0,83,0.00,,,0.00,Wunderground v.1.15,2013-01-12 04:32:00,
2013-01-11 20:42:00,43.6,39.1,30.17,West,265,0.0,0.0,84,0.00,,,0.00,Wunderground v.1.15,2013-01-12 04:42:00,
2013-01-11 20:52:00,43.1,38.6,30.17,West,265,0.0,0.0,84,0.00,,,0.00,Wunderground v.1.15,2013-01-12 04:52:00,
2013-01-11 21:12:00,42.4,38.2,30.17,West,265,0.0,0.0,85,0.00,,,0.00,Wunderground v.1.15,2013-01-12 05:12:00,